GFSWCAN_250_rhum_231.txt.gz
RH
9 9 9 10 11 12 14 16 18 19 20 22 24 26 28 30 32 34 43 47 47 55 56 52 48 39 50 58 59 60 61 64 58 97 100 100 100 89 72 86 100 100 100 100 100 100 76 81 100 100 96 75 40 68
7 8 9 9 10 10 12 12 14 16 18 20 22 23 26 30 32 32 34 39 41 37 44 40 28 25 35 50 64 67 66 70 100 100 100 100 100 100 99 100 100 94 100 100 100 84 58 90 100 87 63 62 79 97
4 5 6 7 8 9 10 10 12 14 16 17 18 20 23 25 26 27 31 31 29 31 35 32 24 27 35 57 70 74 70 100 100 100 100 100 100 100 100 100 97 100 100 100 83 56 94 97 62 54 87 91 100 100
2 2 2 2 3 5 6 8 10 11 13 15 16 17 18 20 21 21 26 30 24 23 23 28 28 38 60 73 69 98 100 100 100 100 100 100 100 100 100 97 100 100 99 71 64 98 97 57 60 73 99 100 100 96
2 2 2 2 2 2 3 3 3 4 5 7 8 9 11 14 15 17 20 20 19 19 22 29 41 43 77 87 100 100 100 100 100 100 100 100 100 100 100 100 100 100 100 100 100 77 46 73 100 100 100 100 83 62
2 2 2 2 2 2 3 3 3 3 3 3 3 4 4 4 7 11 14 14 16 18 23 36 40 74 95 100 100 100 100 100 100 100 100 100 100 100 95 84 96 100 100 100 46 60 100 100 100 100 99 80 59 53
2 2 2 2 2 2 3 3 3 3 3 4 4 4 4 4 4 6 8 15 22 22 33 39 76 81 100 100 100 100 100 100 100 100 100 100 100 98 96 100 100 100 79 67 100 100 100 100 100 99 86 64 46 45
2 2 2 2 2 3 3 3 3 3 3 3 4 4 4 4 4 6 9 15 24 33 44 74 95 100 100 100 100 100 100 100 100 100 100 100 100 100 100 100 100 100 100 100 100 100 100 100 94 83 55 38 54 62
2 2 2 2 3 3 3 3 3 3 3 4 4 4 4 6 9 11 17 21 28 53 74 96 100 100 100 100 100 100 100 100 100 100 100 100 100 100 98 100 100 100 100 100 100 100 96 83 71 43 44 58 62 41
2 2 3 3 3 3 3 3 3 4 4 4 4 5 10 17 17 20 29 44 79 100 100 100 100 100 100 100 100 100 100 100 100 100 100 100 100 100 100 100 100 100 100 100 99 82 68 40 37 46 68 68 29 25
3 3 3 4 4 4 4 4 4 4 5 6 8 14 16 20 32 46 66 89 97 100 100 100 100 100 100 100 100 100 100 100 100 100 100 100 100 100 100 100 100 100 97 77 62 43 37 44 68 71 45 28 23 24
4 4 4 4 4 4 5 6 7 8 13 19 26 30 28 43 80 100 100 100 100 100 100 100 100 100 100 100 100 100 100 100 100 100 100 100 100 100 100 100 99 83 68 50 38 48 76 64 46 35 29 23 30 29
4 4 4 5 5 5 8 11 16 27 41 58 64 76 94 71 80 82 93 100 100 100 100 100 100 100 100 100 100 100 100 100 100 100 100 100 100 100 100 83 57 43 39 45 88 74 54 45 39 34 33 32 22 18
4 5 5 6 7 11 17 24 33 42 57 85 82 82 97 91 92 100 100 100 100 100 100 100 100 100 100 100 100 100 100 100 100 100 100 100 97 81 53 38 40 51 71 78 60 52 46 47 42 38 27 20 15 14
6 6 7 10 16 21 26 34 42 45 61 75 82 83 100 100 100 100 100 100 100 100 100 100 100 100 100 100 100 100 100 100 99 94 79 59 49 41 43 58 78 86 64 52 57 56 45 37 32 24 16 14 13 13
8 11 14 24 28 33 43 52 48 64 88 98 100 100 100 100 100 100 100 100 100 100 100 100 100 100 100 100 93 96 98 80 63 57 53 53 59 69 69 86 63 56 56 60 51 41 40 31 24 16 13 12 11 12
16 22 24 34 41 55 84 90 94 100 100 100 100 100 100 100 100 100 100 100 100 100 100 100 100 93 88 92 77 77 68 74 78 63 58 58 62 76 94 63 50 58 53 50 45 41 36 27 21 14 11 11 11 11
24 31 38 46 64 90 100 100 100 100 100 100 100 100 100 100 100 100 100 100 100 100 96 98 88 94 100 94 91 92 80 64 59 55 61 94 82 65 50 51 55 51 46 56 46 43 37 27 20 14 12 11 11 10
39 49 41 60 75 93 100 100 100 100 100 100 100 100 100 100 100 100 100 100 100 98 100 100 100 100 94 89 79 64 74 70 62 89 89 68 54 49 53 48 45 46 51 54 52 47 40 29 20 13 11 10 10 11
43 48 50 59 79 93 100 100 100 100 100 100 100 100 100 100 100 100 100 100 100 100 100 100 98 79 71 72 86 64 60 66 95 92 59 54 56 52 46 42 43 50 58 64 58 49 42 26 17 13 11 10 11 11
33 51 70 100 100 100 100 100 100 100 100 100 100 100 100 100 100 100 100 86 80 73 95 87 74 89 84 88 56 61 74 100 64 55 54 54 49 45 44 47 48 50 57 65 70 47 38 26 16 14 11 10 11 12
100 100 100 100 100 100 100 100 100 100 100 100 100 100 100 100 100 100 100 100 98 98 97 94 98 99 82 72 78 100 93 59 48 52 51 42 46 44 44 52 51 53 59 66 65 54 35 25 17 13 12 10 10 12
100 100 100 100 100 100 100 100 100 100 100 99 100 100 100 100 100 91 83 82 97 100 98 96 78 69 86 99 99 64 54 49 51 50 44 45 46 46 48 50 53 56 59 63 60 56 38 23 19 14 12 10 9 10
100 100 100 100 100 100 100 100 100 100 100 96 98 100 97 79 73 86 99 100 96 79 80 81 71 73 69 77 57 57 52 51 50 47 50 44 43 47 48 50 55 55 54 57 60 55 47 24 18 16 13 11 10 9
100 100 100 100 100 100 100 100 97 88 94 88 82 80 90 94 100 100 100 100 85 88 88 77 58 64 59 57 57 53 48 46 48 51 43 46 50 50 48 48 52 48 51 55 57 56 42 25 17 16 14 12 10 9
100 100 100 100 100 100 100 100 96 93 97 98 100 100 100 100 99 89 88 82 76 61 63 64 58 58 63 57 52 50 48 52 53 50 51 49 47 47 44 44 44 44 51 55 53 59 42 28 18 16 14 13 11 10
100 100 100 100 100 99 99 98 89 93 97 100 98 92 91 86 98 94 81 71 62 61 59 58 61 62 54 53 53 50 53 54 53 54 54 50 46 47 44 43 43 44 48 52 58 51 44 28 19 16 14 14 12 11
88 93 92 87 82 84 83 84 82 92 99 98 98 100 88 78 78 73 70 65 59 58 62 63 57 51 56 56 53 54 55 56 59 58 53 48 48 46 44 44 43 44 45 49 51 50 45 39 20 16 15 13 13 11
92 87 85 87 85 92 91 89 90 83 80 84 81 74 70 71 66 64 62 60 64 64 59 55 56 59 62 63 58 57 62 62 58 53 49 48 47 45 44 45 42 42 46 45 50 46 45 42 29 16 15 15 13 12
83 83 83 82 82 87 88 90 84 80 73 72 72 70 72 72 68 66 68 69 64 57 57 63 70 71 65 62 62 63 60 57 54 52 50 48 46 45 45 44 42 42 44 44 47 46 43 39 34 20 15 15 14 13
91 88 87 81 78 80 76 73 74 76 76 80 82 79 79 80 75 69 65 64 68 74 77 74 65 61 64 64 61 58 56 55 54 52 48 47 46 46 46 45 43 41 44 44 44 46 39 36 34 25 16 15 13 13
100 100 100 100 97 92 88 88 87 86 85 85 85 83 78 72 71 71 82 85 81 76 68 62 63 66 64 61 59 55 54 54 52 49 46 47 45 46 46 44 42 41 42 44 44 45 44 41 32 27 18 15 13 12
100 100 100 100 100 100 100 95 91 88 85 84 84 82 81 80 80 79 82 78 72 64 62 62 62 61 58 55 54 54 56 54 51 49 47 45 43 44 44 43 41 39 40 44 44 44 46 41 31 30 18 14 13 12

GFSWCAN_250_rhum_234.txt.gz
RH
10 8 8 8 8 9 10 12 16 22 28 36 51 64 68 67 69 78 98 99 100 100 98 96 98 87 94 81 66 58 59 42 57 59 47 49 51 64 71 84 65 72 84 93 99 90 68 54 81 87 100 100 100 93
8 9 11 12 10 9 9 10 11 12 16 20 25 39 48 49 55 61 95 88 94 93 95 93 91 81 86 72 53 56 51 52 75 64 71 72 70 88 100 87 72 85 97 95 96 71 74 96 100 100 100 100 92 95
7 8 9 10 12 14 13 11 10 11 12 13 15 20 29 38 44 54 62 67 69 57 66 71 72 62 68 62 47 50 53 89 89 89 87 94 96 100 100 96 97 100 100 94 92 100 100 100 100 100 100 100 100 86
8 8 8 9 10 12 14 15 14 11 12 12 14 16 18 24 31 36 51 60 62 58 47 55 56 46 52 50 54 65 70 86 95 100 100 100 100 100 100 98 100 93 80 97 100 100 100 100 100 100 100 100 98 97
5 7 8 9 10 11 12 13 16 16 14 13 14 16 18 19 21 22 27 28 28 27 33 44 45 46 60 75 90 58 51 65 98 100 100 100 100 100 100 100 85 72 92 95 100 100 100 100 100 100 100 100 100 85
2 3 6 8 9 10 11 12 13 14 16 20 23 24 23 22 21 24 25 23 25 31 44 53 63 78 68 59 40 46 58 89 100 100 100 100 100 100 95 82 69 93 100 100 100 100 100 100 100 100 100 100 99 100
2 2 2 3 6 9 10 11 12 13 14 16 19 21 25 26 28 29 43 85 70 63 56 42 39 38 48 42 46 53 100 100 100 100 100 100 100 100 83 68 100 100 100 100 100 100 100 100 100 100 100 100 100 98
2 2 2 2 2 3 6 10 11 12 14 16 18 19 20 20 20 21 31 33 25 23 26 30 36 45 40 48 53 86 100 100 100 100 100 100 100 81 91 100 100 100 100 99 100 100 100 100 100 100 100 99 95 76
2 2 2 2 2 2 3 3 5 8 11 14 16 17 17 15 16 22 24 22 20 21 23 35 43 44 54 97 100 100 100 100 100 100 100 100 75 98 100 100 100 99 100 100 100 100 100 100 100 100 95 73 49 42
2 2 2 2 2 3 3 3 3 3 4 4 4 4 5 6 9 10 11 12 14 18 24 33 41 53 100 100 100 100 100 100 100 100 80 85 100 100 100 100 100 100 100 100 100 100 100 100 92 71 56 42 42 29
2 2 2 2 2 2 3 3 3 3 3 3 3 4 4 4 4 4 4 6 10 16 25 36 48 100 100 100 100 100 100 100 100 92 95 100 100 100 100 100 100 100 100 100 100 100 98 84 66 47 49 39 28 30
2 2 2 2 2 3 3 3 3 4 4 5 5 4 4 3 4 4 5 10 16 23 30 40 86 100 100 100 100 100 100 100 100 100 100 100 100 94 100 100 100 100 100 100 100 74 63 49 51 49 37 40 41 38
2 3 3 3 3 3 3 3 3 3 3 3 3 4 4 4 5 6 13 19 22 30 56 84 100 99 100 100 90 99 100 100 100 100 100 98 100 100 100 100 100 100 100 76 54 54 73 61 44 48 48 40 29 26
3 3 3 3 3 3 3 3 3 3 4 6 7 7 8 12 17 21 30 51 82 100 100 100 100 100 100 100 100 100 100 100 100 100 100 100 100 100 100 100 99 76 50 49 67 50 45 46 59 47 36 28 28 22
4 4 4 4 4 4 4 4 6 8 12 15 18 25 29 36 52 72 91 99 100 100 100 100 100 100 100 99 99 100 100 92 100 100 100 100 100 100 100 84 64 58 57 69 44 46 50 56 45 38 33 29 22 16
5 5 5 6 6 7 10 16 24 28 35 51 83 92 97 100 100 100 100 100 100 100 100 100 98 100 100 100 100 100 100 100 100 100 100 97 98 84 70 68 53 69 73 45 46 51 50 41 45 38 32 25 17 13
9 9 8 9 11 19 29 48 63 73 98 100 100 100 100 100 100 100 100 100 100 100 100 100 100 100 100 100 100 100 100 100 100 100 92 80 64 53 57 66 75 52 48 48 50 48 43 40 46 33 29 22 15 13
12 14 21 22 28 43 93 81 100 100 100 100 100 100 100 100 100 100 100 100 100 100 100 100 100 100 100 100 100 100 100 100 88 66 57 60 54 67 92 64 47 46 51 51 45 43 43 42 44 36 25 22 14 13
23 30 35 43 61 83 98 100 100 100 100 100 100 100 100 100 100 100 100 100 99 100 99 99 100 100 100 96 96 90 96 89 66 66 60 57 91 96 52 44 46 48 48 46 42 40 41 42 47 33 25 19 13 13
40 75 80 92 100 100 100 100 100 100 100 100 100 100 100 100 100 100 100 100 100 90 100 96 100 99 91 99 98 90 78 64 54 64 85 100 93 55 46 45 46 46 47 43 39 38 38 41 45 41 26 20 13 13
88 84 96 100 100 100 100 100 100 100 100 100 100 100 100 100 100 100 94 98 91 91 82 91 84 94 96 89 68 60 55 73 76 98 99 88 52 50 48 45 48 48 42 40 37 38 37 40 40 41 28 23 14 12
93 100 100 100 100 100 100 100 100 100 100 100 100 100 100 94 81 78 73 83 94 94 98 98 82 92 88 75 72 72 95 100 100 100 72 52 51 48 48 49 48 44 42 40 38 37 37 39 40 39 30 26 16 12
100 100 100 100 100 100 100 100 100 98 100 97 81 84 87 94 97 91 86 77 77 76 80 92 95 86 87 82 81 79 71 95 98 75 53 51 49 48 53 52 49 44 42 39 39 37 35 38 38 38 35 30 21 14
100 100 100 100 100 100 100 100 100 100 100 100 100 100 98 87 98 98 95 92 81 89 88 67 72 79 75 88 92 100 100 90 66 53 54 51 48 53 55 54 46 41 41 39 38 38 35 38 38 38 39 32 24 15
100 100 100 99 100 100 100 100 100 100 100 100 93 94 100 100 88 87 79 72 65 69 86 100 82 68 76 90 100 93 70 56 52 54 56 48 53 56 54 50 43 42 42 42 38 37 36 37 37 37 36 35 29 20
100 100 100 100 100 100 100 100 100 100 87 91 89 84 91 95 88 73 76 90 94 84 94 91 94 80 62 73 73 60 57 61 60 59 52 54 58 53 50 47 46 45 43 41 39 40 36 35 36 37 37 36 34 24
100 100 100 100 100 99 91 95 97 96 96 92 84 83 87 79 72 88 97 100 91 83 82 78 71 70 67 61 58 64 69 66 61 54 53 54 53 52 50 50 49 46 44 41 41 40 37 34 35 36 38 39 37 28
100 100 100 100 98 91 94 85 84 86 84 71 63 66 72 86 98 98 88 75 82 88 77 69 71 68 62 60 66 66 63 61 58 56 55 54 54 54 52 51 50 48 47 42 42 41 39 36 36 37 37 38 38 33
82 83 88 93 96 93 89 91 88 84 86 84 79 77 82 89 99 99 94 84 79 68 65 71 69 68 74 74 67 65 64 60 58 60 58 56 57 57 54 52 52 50 48 42 42 42 42 39 37 37 38 38 39 34
99 100 97 99 94 97 97 87 87 89 87 90 94 96 88 89 87 84 77 71 68 72 76 74 76 76 74 71 70 69 63 59 58 57 58 61 58 56 55 56 54 51 48 43 42 42 42 41 38 38 38 38 39 33
99 100 97 98 99 98 98 98 95 85 85 88 87 84 84 77 73 70 73 79 82 82 81 79 79 82 82 80 74 63 59 58 57 58 60 62 57 54 56 59 56 52 48 43 40 40 41 42 40 38 39 38 38 34
75 78 80 79 80 82 84 83 82 81 79 76 73 73 79 83 84 86 87 87 87 85 86 90 90 86 79 70 62 58 58 58 59 62 63 60 54 55 58 59 56 51 47 42 39 40 40 42 43 39 40 38 37 35
90 88 86 84 82 80 79 78 77 80 85 94 98 97 96 95 94 95 94 97 97 92 88 86 83 79 70 64 64 64 60 61 64 64 62 58 56 58 58 57 54 50 45 41 40 40 41 42 44 39 40 41 38 37

GFSWCAN_250_rhum_237.txt.gz
RH
8 10 12 14 16 19 21 24 27 34 49 57 64 66 80 91 84 76 92 94 87 85 94 86 96 96 99 97 99 96 92 88 100 99 93 82 75 70 57 52 44 46 60 66 64 66 66 79 64 91 100 100 100 100
7 7 8 9 12 17 19 22 25 28 34 41 55 72 80 93 99 95 96 99 99 100 95 76 76 93 95 92 99 94 94 100 96 98 94 94 81 63 46 42 67 67 70 62 85 79 84 73 76 100 100 100 100 100
6 7 7 8 8 9 12 18 21 24 28 35 47 59 80 89 94 99 100 100 99 100 93 83 82 81 84 100 100 94 100 100 100 96 100 94 62 62 56 74 92 98 90 99 95 93 73 60 100 100 100 99 89 93
7 7 8 7 7 8 8 10 12 15 21 28 35 43 57 74 88 84 92 100 94 90 92 99 100 91 91 92 96 100 100 100 100 92 88 68 56 76 92 100 100 100 99 97 87 66 69 100 100 97 87 98 100 100
6 6 8 9 8 7 7 8 9 10 13 16 20 24 33 45 56 56 70 82 80 86 96 100 100 100 100 92 84 87 100 98 94 92 70 50 70 100 100 100 100 100 99 89 60 83 99 97 100 100 100 100 100 91
6 6 7 8 10 11 11 10 9 9 10 11 14 18 22 29 32 30 34 39 54 68 74 81 90 88 81 71 69 83 86 91 79 61 53 64 100 97 100 100 100 90 95 62 84 91 94 100 100 100 100 97 100 100
6 7 7 8 9 11 13 14 14 12 11 11 11 12 13 16 17 19 25 44 54 54 52 46 45 59 66 68 72 84 80 72 64 57 54 90 89 96 100 100 95 93 76 91 95 95 97 100 100 99 99 100 100 100
3 6 7 8 9 10 12 14 16 19 19 17 15 14 14 14 14 14 18 22 19 18 19 24 39 55 62 70 74 70 66 68 57 81 84 68 84 100 100 92 93 100 100 96 85 98 100 100 100 100 100 100 92 73
2 2 4 7 9 11 12 13 16 18 21 24 24 21 17 14 13 15 18 18 16 14 15 22 33 36 36 43 46 69 63 73 85 65 55 80 100 100 87 84 89 94 96 82 96 88 94 100 100 100 90 77 69 62
2 2 2 3 6 10 13 15 16 18 21 24 26 19 16 15 14 15 17 16 12 12 16 23 26 29 39 53 69 92 80 53 49 59 100 100 100 82 80 78 100 80 67 95 88 100 100 100 92 87 74 64 49 46
2 2 2 2 3 6 10 14 16 17 18 18 18 17 18 23 20 16 16 13 12 15 23 31 38 51 74 92 95 55 44 50 90 100 100 88 82 88 100 100 62 76 96 100 100 100 93 81 77 69 64 48 39 35
2 2 2 2 3 3 5 9 12 13 14 17 17 17 19 17 15 12 10 11 15 28 53 69 82 87 82 70 51 48 58 97 100 99 70 93 100 100 95 71 86 95 100 100 100 96 84 68 70 56 48 39 38 40
2 2 2 3 3 3 3 4 6 10 15 16 16 15 16 14 11 11 15 15 20 34 40 48 54 58 56 47 49 70 100 100 94 68 100 100 100 100 82 90 100 100 100 100 83 79 76 76 61 44 38 40 40 34
2 3 3 3 3 3 4 4 4 4 6 8 8 9 8 8 9 17 30 32 43 64 61 64 62 58 48 75 100 100 95 70 90 100 100 100 72 85 100 100 100 100 92 77 72 82 71 46 37 40 39 39 35 31
2 3 3 3 3 3 4 4 4 4 5 5 6 6 7 9 9 8 7 8 16 34 42 50 43 41 95 100 94 90 72 100 100 100 84 67 100 100 100 98 92 71 68 71 82 71 44 38 44 40 37 34 33 35
3 4 4 4 4 5 5 5 6 6 6 6 5 5 5 5 5 5 5 5 8 14 22 30 63 100 96 88 79 92 100 100 72 76 100 100 98 97 92 73 71 64 68 71 51 39 42 48 46 41 34 31 34 35
5 5 5 5 5 5 5 5 5 6 6 6 6 7 7 7 8 9 12 18 24 31 66 100 100 94 97 75 100 100 100 99 99 96 98 100 97 81 72 75 61 67 80 48 41 44 49 45 44 38 32 33 31 32
8 7 7 7 7 8 8 8 7 8 10 14 17 24 34 38 62 77 79 85 93 100 98 100 100 97 100 100 100 95 76 90 92 100 100 89 71 70 62 59 86 89 55 44 45 51 48 46 38 35 35 33 31 30
13 13 11 14 16 17 19 26 36 65 80 87 94 100 100 100 100 100 100 100 100 100 100 100 100 100 100 89 76 81 84 96 98 92 83 69 77 67 64 94 86 54 48 49 53 50 48 42 37 38 36 33 31 29
23 31 41 43 46 76 98 100 100 100 100 100 100 100 100 100 100 100 100 100 100 100 100 100 100 95 83 84 92 99 100 96 84 72 73 72 78 91 99 82 54 50 50 52 52 48 43 41 38 39 37 34 31 28
66 84 93 100 100 100 100 100 100 100 100 100 100 100 100 100 100 100 100 100 100 100 100 95 83 74 82 100 100 92 77 73 68 80 76 88 100 100 86 56 48 47 54 54 52 46 44 41 40 39 39 34 31 28
100 100 100 100 100 100 100 100 100 100 100 100 100 100 100 100 100 100 100 98 93 88 78 68 73 87 80 78 76 70 66 65 75 61 80 100 98 96 62 48 45 52 52 52 49 50 45 44 41 39 40 37 33 30
100 100 100 100 100 100 100 100 100 100 100 100 100 100 100 98 93 86 82 74 70 70 70 74 76 79 79 75 68 72 67 90 100 100 100 100 97 66 49 48 51 50 50 52 54 53 49 46 43 40 39 36 34 33
100 100 100 100 100 100 100 100 100 100 100 100 100 95 84 93 69 79 94 94 82 85 90 74 79 78 69 62 66 78 82 91 100 100 100 89 65 51 53 53 48 48 52 55 57 55 50 45 45 41 38 36 35 36
100 100 100 100 100 100 100 100 100 100 100 99 93 95 81 72 67 70 71 68 56 52 56 61 62 71 88 90 79 68 87 88 81 96 77 60 55 59 59 50 47 50 54 59 60 57 52 46 46 41 39 37 37 38
100 100 100 100 100 100 100 100 100 98 100 92 93 94 86 73 63 53 63 59 58 63 79 72 67 84 98 100 92 82 84 79 78 72 61 59 63 61 55 53 52 52 61 63 60 55 51 48 48 43 39 37 39 39
100 100 100 100 100 100 100 100 100 100 98 89 81 68 64 58 57 62 60 64 88 78 77 99 100 83 82 86 89 98 84 69 67 64 62 62 59 57 58 58 56 58 63 61 58 55 51 51 50 45 42 38 40 40
100 100 100 100 100 100 100 100 100 91 88 86 72 60 55 56 64 72 76 71 70 70 75 88 76 86 79 74 82 82 73 66 66 65 64 60 58 62 61 62 63 64 62 60 56 52 51 52 52 48 44 39 40 41
100 100 100 100 99 100 100 100 100 98 85 77 63 51 55 67 68 70 69 65 77 79 81 91 99 80 72 76 80 77 71 69 69 67 66 63 64 65 63 61 61 60 60 58 55 54 50 51 53 49 47 42 41 42
100 100 100 100 100 100 100 94 91 84 77 85 88 86 89 89 81 65 65 72 75 78 94 90 76 75 77 79 80 76 75 76 75 73 70 68 69 64 60 58 59 61 59 57 54 52 51 53 54 51 50 43 42 42
100 100 100 100 100 97 96 91 90 91 90 89 83 74 62 55 56 65 72 79 91 91 85 76 80 82 81 82 81 80 81 81 77 76 75 70 66 64 61 58 58 59 59 56 53 51 53 57 56 51 48 43 42 41
100 100 100 99 96 90 78 72 66 64 64 63 64 63 67 80 87 91 80 80 79 75 72 81 86 87 89 91 93 90 84 80 82 82 77 72 70 68 64 61 59 59 58 55 53 53 56 58 55 46 47 42 42 42
76 71 68 68 70 71 71 69 70 72 75 78 80 84 84 78 77 79 81 82 84 83 85 93 97 99 100 97 92 89 87 86 86 80 74 74 73 70 66 60 57 57 58 56 54 56 57 56 49 45 46 42 44 42

GFSWCAN_250_rhum_243.txt.gz
RH
8 8 8 9 10 12 15 19 25 35 45 56 62 59 66 78 80 86 100 99 100 100 100 94 92 81 77 70 67 68 63 60 57 57 61 58 61 69 75 79 86 85 82 87 87 80 80 84 69 65 52 45 49 69
7 8 8 8 8 9 13 16 21 26 38 38 40 56 69 78 90 85 91 99 100 93 99 100 100 93 98 97 93 85 79 80 73 74 78 81 78 78 88 86 92 88 93 86 86 87 79 79 73 51 47 56 76 85
7 7 7 8 8 9 9 11 13 14 18 25 42 59 75 78 85 88 88 100 94 99 100 100 100 100 100 100 100 98 99 100 92 88 90 85 79 89 84 96 97 82 77 77 80 85 82 75 55 48 57 79 92 100
7 7 8 8 9 9 10 11 12 14 21 32 48 59 66 73 88 86 95 100 99 100 98 100 100 100 100 100 100 100 100 100 100 98 88 87 85 78 78 84 84 84 83 97 90 80 62 70 47 56 75 92 99 100
8 8 7 8 8 9 10 10 11 12 14 22 37 46 61 79 93 96 87 100 100 100 99 100 100 100 100 95 97 100 100 98 97 92 88 79 73 75 83 83 79 90 100 100 81 75 58 59 53 66 88 99 100 100
6 6 8 8 8 8 10 11 12 12 13 15 21 32 53 70 76 70 61 63 84 98 100 92 89 93 90 93 100 100 99 100 94 90 84 76 82 86 89 100 96 100 100 94 80 61 55 48 59 84 99 100 100 95
7 7 6 7 9 9 9 10 11 13 16 18 22 26 40 59 61 56 62 95 100 100 98 100 93 94 99 99 100 100 100 100 98 88 85 88 85 84 87 80 100 100 100 85 74 52 51 54 67 97 100 97 98 97
8 8 7 7 8 10 12 12 12 12 15 19 24 27 35 44 43 33 50 82 98 92 74 66 72 97 100 100 99 98 100 100 92 92 98 94 92 88 94 100 100 100 92 81 55 52 51 60 95 100 91 99 100 86
7 8 8 8 8 8 11 14 14 14 15 16 18 24 29 25 19 24 50 68 83 59 40 40 69 94 99 100 100 100 100 100 91 86 93 90 91 87 100 100 100 97 73 69 54 52 56 94 98 77 100 99 100 100
4 7 8 9 9 9 10 13 18 20 18 17 16 15 14 13 16 19 23 24 24 17 18 23 48 67 79 89 97 100 92 78 76 87 92 81 82 94 100 100 100 78 67 52 54 60 96 94 85 95 100 100 100 100
4 5 7 9 11 12 11 10 13 18 19 17 15 15 16 17 17 17 17 16 14 14 14 20 31 48 74 93 97 75 62 63 66 78 71 72 89 100 100 100 83 54 48 56 65 94 99 84 90 100 100 100 100 100
3 4 7 9 12 13 14 12 10 10 11 15 18 18 18 17 15 12 12 11 10 10 20 31 44 51 57 66 70 60 60 58 68 83 76 78 100 100 100 82 42 47 54 68 91 87 90 95 100 100 100 100 100 61
2 3 6 9 11 13 16 15 11 9 10 9 9 9 11 11 9 8 7 8 14 26 35 44 52 58 62 62 63 61 55 57 74 75 66 96 100 96 60 32 51 57 72 91 90 93 90 100 100 100 100 100 59 58
3 3 5 8 10 11 13 12 12 12 10 8 7 8 8 8 10 15 21 29 40 64 76 80 66 51 45 43 40 36 40 53 45 56 88 90 73 41 29 55 62 80 97 94 90 100 100 100 100 100 100 63 57 59
3 3 4 8 10 10 11 14 17 15 12 11 12 14 15 22 22 22 22 22 21 21 19 19 19 20 20 17 20 25 32 30 36 53 62 47 31 38 55 63 87 88 84 79 100 100 100 100 100 100 74 59 60 62
3 3 4 7 10 12 12 14 14 14 14 23 40 57 63 53 34 27 23 18 17 15 14 13 14 14 15 18 22 27 32 49 89 52 31 27 45 55 76 89 89 74 79 100 100 100 100 100 100 86 65 61 63 59
3 4 4 7 12 14 14 14 12 11 20 43 61 75 84 78 75 64 43 28 23 19 18 20 20 19 21 27 35 75 99 59 37 29 36 45 56 85 78 78 72 94 100 100 100 100 100 100 88 70 63 64 62 58
4 4 4 6 11 13 13 12 12 16 26 45 55 66 71 60 44 32 23 17 19 22 21 20 23 28 38 68 95 81 48 42 32 39 45 68 76 64 88 91 100 100 100 100 100 100 100 87 69 64 64 62 58 59
4 4 4 5 8 9 11 13 18 29 34 32 33 34 29 25 20 17 21 39 40 36 30 33 44 68 77 83 53 37 29 33 42 62 66 63 53 78 98 100 100 100 100 100 100 100 96 73 63 64 60 58 60 61
4 4 4 5 5 6 12 15 17 21 23 27 28 28 28 31 28 29 33 33 36 37 58 77 84 69 88 46 35 33 40 51 64 69 56 58 89 90 100 100 100 100 100 100 100 100 88 68 64 61 56 60 62 62
4 5 5 5 6 6 9 13 18 22 24 28 29 31 36 36 38 42 38 36 45 58 64 64 61 94 61 40 38 46 61 60 51 57 90 100 100 100 100 100 100 100 100 100 100 97 74 65 61 55 60 63 62 66
5 5 6 6 6 7 8 10 11 14 18 21 22 24 26 26 27 29 23 29 44 55 60 56 52 45 46 40 59 56 49 61 95 100 99 100 100 100 100 100 100 100 94 99 100 84 69 64 59 62 63 62 66 70
6 6 6 7 7 7 8 8 9 10 10 12 12 12 12 11 10 12 22 31 28 27 33 41 45 40 50 54 54 66 89 99 100 100 100 100 100 100 100 100 97 92 98 100 96 76 68 64 64 66 65 65 69 73
7 7 8 8 8 9 9 9 9 8 8 8 7 6 6 6 7 8 22 23 28 36 37 34 45 52 59 86 97 100 99 100 100 100 100 100 100 100 100 87 81 99 100 98 78 71 68 68 68 69 68 68 72 79
16 18 19 16 18 22 24 26 24 18 11 9 8 8 10 12 14 20 29 39 44 47 55 55 52 75 96 100 100 100 99 100 100 100 100 100 97 89 80 77 98 100 96 78 71 72 71 72 73 74 72 70 73 78
77 83 74 64 58 61 59 56 48 43 47 50 52 59 67 63 61 60 60 63 68 78 84 97 100 100 100 99 100 100 100 100 100 100 99 77 78 80 75 74 83 84 77 74 74 74 73 76 80 81 76 72 72 74
100 100 100 99 94 92 88 88 94 96 90 84 79 80 78 74 80 83 94 100 90 68 85 100 100 100 100 100 100 100 100 100 99 81 67 66 75 82 79 72 74 77 78 81 81 77 79 85 86 84 79 74 74 74
100 100 98 96 92 91 90 87 87 97 100 100 100 100 100 100 100 100 100 94 100 100 100 100 100 100 100 100 100 100 100 90 67 65 70 69 68 69 76 80 78 76 83 86 83 84 93 94 88 82 77 78 75 78
98 98 100 100 100 100 100 100 100 99 100 100 100 100 100 93 100 98 92 100 100 100 100 95 91 91 90 99 92 87 73 71 62 56 61 69 74 75 79 80 78 82 88 90 88 97 100 93 87 79 78 81 80 84
100 99 100 99 97 91 95 100 99 100 100 100 100 100 100 100 100 100 100 100 97 89 84 76 73 72 79 81 73 69 59 57 59 63 70 72 86 83 82 86 88 90 91 92 97 100 98 89 81 80 81 84 86 90
100 100 100 100 100 99 98 99 100 100 100 100 100 100 100 100 100 100 100 100 97 90 77 72 74 71 74 66 69 66 58 60 65 67 70 74 82 87 91 94 93 91 94 100 100 100 90 85 84 84 82 84 90 89
97 93 94 83 87 87 100 100 100 100 95 97 99 100 100 100 100 89 80 88 87 81 70 71 68 65 63 60 58 58 62 62 65 68 77 80 86 91 97 96 96 100 100 100 100 94 88 87 87 86 83 85 89 82
100 96 100 100 100 100 100 100 100 98 96 89 88 95 92 81 82 83 89 87 81 75 67 70 70 69 64 54 53 59 62 64 63 66 69 75 81 92 95 99 100 100 100 100 100 95 92 91 88 87 86 86 84 76